RRR9721 LCRA-EGQS

Flight info

Callsign RRR9721
Flight time 5h 35m
Altitude 40000
Route 3433N03308E 3429N03306E DCT PH963 DCT MAROS L609 ALKIS UL609 MES UG18 FSK UL608 DISOR DCT LONTA UL608 DOLEV DCT ODLET DCT TUVAR DCT BAREB DCT PESAT DCT DITIS DCT RAPET T843 DEMAB L604 RELBI L602 SUPUR P1 GODOS DCT ALASO P18 ADN DCT 5737N00304W 5747N00312W DCT 5743N00319W
Aircraft A332/H-SDE3GHIJ2J3J5M1RVWXY/LB2D1

Departure

Time 2026-05-07 13:06
Airport RAF Akrotiri (LCRA)

Arrival

Time 2026-05-07 18:41
Airport RAF Lossiemouth (EGQS)
Time Latitude Longitude Altitude Speed Heading
2026-05-07 12:50 34.58426 32.99825 88 ft 0 kts 125°
2026-05-07 13:01 34.58430 32.99818 92 ft 2 kts 122°
2026-05-07 13:02 34.58441 32.99801 89 ft 2 kts 93°
2026-05-07 13:02 34.58438 32.99782 90 ft 2 kts 36°
2026-05-07 13:02 34.58437 32.99781 90 ft 0 kts 36°
2026-05-07 13:04 34.58446 32.99789 91 ft 15 kts 36°
2026-05-07 13:04 34.58548 32.99886 92 ft 14 kts 71°
2026-05-07 13:04 34.58534 33.00028 91 ft 20 kts 92°
2026-05-07 13:04 34.58618 33.00173 92 ft 25 kts 25°
2026-05-07 13:05 34.58670 33.00153 90 ft 8 kts 302°
2026-05-07 13:05 34.58672 33.00145 92 ft 0 kts 292°
2026-05-07 13:05 34.58688 33.00089 92 ft 30 kts 287°
2026-05-07 13:05 34.58869 32.99402 88 ft 139 kts 288°
2026-05-07 13:06 34.59230 32.97980 158 ft 204 kts 286°
2026-05-07 13:06 34.59731 32.96278 904 ft 224 kts 287°
2026-05-07 13:06 34.60229 32.94456 2209 ft 225 kts 287°
2026-05-07 13:06 34.60682 32.92629 3581 ft 229 kts 288°
2026-05-07 13:07 34.60942 32.90657 4414 ft 251 kts 268°
2026-05-07 13:07 34.60504 32.88513 5077 ft 271 kts 253°
2026-05-07 13:07 34.59936 32.86294 5498 ft 274 kts 258°
2026-05-07 13:07 34.59602 32.84015 5713 ft 274 kts 266°
2026-05-07 13:08 34.59489 32.81710 5873 ft 274 kts 271°
2026-05-07 13:08 34.59507 32.79390 5967 ft 275 kts 274°
2026-05-07 13:08 34.59585 32.77071 5972 ft 275 kts 275°
2026-05-07 13:08 34.59680 32.74784 5971 ft 274 kts 275°
2026-05-07 13:09 34.59776 32.72473 5975 ft 274 kts 275°
2026-05-07 13:09 34.59869 32.70163 5970 ft 274 kts 275°
2026-05-07 13:09 34.59958 32.67848 5973 ft 274 kts 275°
2026-05-07 13:09 34.60045 32.65532 5973 ft 274 kts 275°
2026-05-07 13:10 34.60129 32.63223 5976 ft 275 kts 275°
2026-05-07 13:10 34.60214 32.60903 5971 ft 275 kts 275°
2026-05-07 13:10 34.60298 32.58582 5972 ft 274 kts 275°
2026-05-07 13:10 34.60369 32.56271 5974 ft 275 kts 274°
2026-05-07 13:11 34.60403 32.53932 6194 ft 279 kts 273°
2026-05-07 13:11 34.60426 32.51594 7012 ft 280 kts 273°
2026-05-07 13:11 34.60450 32.49236 8134 ft 280 kts 273°
2026-05-07 13:11 34.60479 32.46860 9164 ft 284 kts 274°
2026-05-07 13:12 34.60512 32.44450 10190 ft 288 kts 274°
2026-05-07 13:12 34.60545 32.42009 11183 ft 289 kts 274°
2026-05-07 13:12 34.60579 32.39558 12199 ft 291 kts 274°
2026-05-07 13:12 34.60612 32.37088 13213 ft 294 kts 274°
2026-05-07 13:13 34.60645 32.34588 14227 ft 296 kts 274°
2026-05-07 13:13 34.60677 32.32078 15135 ft 298 kts 274°
2026-05-07 13:13 34.60709 32.29546 16047 ft 301 kts 274°
2026-05-07 13:13 34.60741 32.26993 16984 ft 304 kts 274°
2026-05-07 13:14 34.60773 32.24450 17887 ft 307 kts 274°
2026-05-07 13:14 34.60804 32.21849 18774 ft 310 kts 274°
2026-05-07 13:14 34.60835 32.19228 19606 ft 312 kts 274°
2026-05-07 13:14 34.60866 32.16578 20429 ft 315 kts 274°
2026-05-07 13:15 34.60897 32.13900 21249 ft 318 kts 274°
2026-05-07 13:15 34.60927 32.11199 22079 ft 321 kts 274°
2026-05-07 13:15 34.60957 32.08473 22891 ft 325 kts 274°
2026-05-07 13:15 34.60987 32.05707 23703 ft 328 kts 274°
2026-05-07 13:16 34.61016 32.02926 24373 ft 332 kts 274°
2026-05-07 13:16 34.61045 32.00138 25024 ft 336 kts 274°
2026-05-07 13:16 34.61073 31.97282 25692 ft 340 kts 274°
2026-05-07 13:16 34.61102 31.94404 26362 ft 343 kts 274°
2026-05-07 13:17 34.61129 31.91492 27018 ft 347 kts 274°
2026-05-07 13:17 34.61157 31.88542 27679 ft 351 kts 274°
2026-05-07 13:17 34.61184 31.85560 28345 ft 355 kts 274°
2026-05-07 13:17 34.61211 31.82549 28997 ft 359 kts 274°
2026-05-07 13:18 34.61237 31.79492 29646 ft 363 kts 274°
2026-05-07 13:18 34.61263 31.76405 30288 ft 368 kts 274°
2026-05-07 13:18 34.61288 31.73288 30876 ft 371 kts 274°
2026-05-07 13:18 34.61312 31.70141 31485 ft 374 kts 274°
2026-05-07 13:19 34.61335 31.66974 32084 ft 377 kts 274°
2026-05-07 13:19 34.61358 31.63816 32666 ft 381 kts 274°
2026-05-07 13:19 34.61380 31.60549 33253 ft 384 kts 275°
2026-05-07 13:19 34.61400 31.57355 33944 ft 384 kts 275°
2026-05-07 13:20 34.61418 31.54116 34641 ft 383 kts 275°
2026-05-07 13:20 34.61437 31.50881 35255 ft 382 kts 275°
2026-05-07 13:20 34.61456 31.47654 35845 ft 382 kts 275°
2026-05-07 13:20 34.61474 31.44425 36430 ft 382 kts 274°
2026-05-07 13:21 34.61492 31.41199 37011 ft 382 kts 274°
2026-05-07 13:21 34.61510 31.37970 37581 ft 382 kts 274°
2026-05-07 13:21 34.61526 31.34783 38130 ft 382 kts 274°
2026-05-07 13:21 34.61541 31.31609 38668 ft 382 kts 274°
2026-05-07 13:22 34.61557 31.28385 39127 ft 382 kts 274°
2026-05-07 13:22 34.61571 31.25207 39583 ft 380 kts 274°
2026-05-07 13:22 34.61584 31.21993 39927 ft 382 kts 273°
2026-05-07 13:22 34.61597 31.18776 40068 ft 380 kts 273°
2026-05-07 13:23 34.61618 31.12379 40137 ft 378 kts 273°
2026-05-07 13:23 34.61635 31.05995 40137 ft 378 kts 273°
2026-05-07 13:24 34.61650 30.99612 40139 ft 378 kts 273°
2026-05-07 13:24 34.61661 30.93213 40141 ft 377 kts 274°
2026-05-07 13:25 34.61936 30.90069 40139 ft 373 kts 287°
2026-05-07 13:25 34.62792 30.87159 40143 ft 370 kts 299°
2026-05-07 13:25 34.64200 30.84511 40146 ft 369 kts 310°
2026-05-07 13:25 34.65813 30.82137 40150 ft 369 kts 309°
2026-05-07 13:26 34.69079 30.77254 40160 ft 371 kts 309°
2026-05-07 13:26 34.72312 30.72395 40172 ft 372 kts 309°
2026-05-07 13:27 34.75569 30.67496 40182 ft 373 kts 309°
2026-05-07 13:27 34.78829 30.62588 40192 ft 373 kts 309°
2026-05-07 13:28 34.82083 30.57683 40145 ft 369 kts 309°
2026-05-07 13:28 34.85268 30.52875 40146 ft 362 kts 309°
2026-05-07 13:29 34.88448 30.48069 40147 ft 366 kts 309°
2026-05-07 13:29 34.91636 30.43244 40145 ft 364 kts 309°
2026-05-07 13:30 34.94793 30.38458 40144 ft 364 kts 309°
2026-05-07 13:30 34.97964 30.33645 40148 ft 364 kts 309°
2026-05-07 13:31 35.01133 30.28829 40148 ft 364 kts 309°
2026-05-07 13:31 35.04306 30.24000 40149 ft 364 kts 309°
2026-05-07 13:32 35.07457 30.19197 40155 ft 364 kts 309°
2026-05-07 13:32 35.10615 30.14377 40156 ft 363 kts 309°
2026-05-07 13:33 35.13771 30.09554 40157 ft 363 kts 309°
2026-05-07 13:33 35.16920 30.04733 40155 ft 363 kts 309°
2026-05-07 13:34 35.21607 29.97479 40154 ft 362 kts 308°
2026-05-07 13:35 35.24595 29.92526 40152 ft 361 kts 308°
2026-05-07 13:35 35.27588 29.87573 40154 ft 361 kts 308°
2026-05-07 13:36 35.30565 29.82670 40153 ft 360 kts 308°
2026-05-07 13:36 35.33555 29.77749 40148 ft 359 kts 308°
2026-05-07 13:37 35.36530 29.72845 40150 ft 358 kts 308°
2026-05-07 13:37 35.39498 29.67944 40149 ft 357 kts 308°
2026-05-07 13:38 35.42452 29.63060 40146 ft 356 kts 308°
2026-05-07 13:38 35.45386 29.58202 40141 ft 355 kts 307°
2026-05-07 13:39 35.48325 29.53329 40139 ft 355 kts 307°
2026-05-07 13:39 35.51255 29.48464 40137 ft 354 kts 307°
2026-05-07 13:40 35.54179 29.43602 40135 ft 353 kts 307°
2026-05-07 13:40 35.57092 29.38753 40132 ft 352 kts 307°
2026-05-07 13:41 35.59995 29.33911 40133 ft 352 kts 307°
2026-05-07 13:41 35.62876 29.29101 40136 ft 351 kts 307°
2026-05-07 13:42 35.65775 29.24254 40135 ft 351 kts 307°
2026-05-07 13:42 35.68670 29.19407 40134 ft 351 kts 307°
2026-05-07 13:43 35.71542 29.14592 40132 ft 351 kts 307°
2026-05-07 13:43 35.74435 29.09734 40133 ft 351 kts 307°
2026-05-07 13:44 35.77323 29.04879 40137 ft 351 kts 307°
2026-05-07 13:44 35.80210 29.00018 40134 ft 351 kts 307°
2026-05-07 13:45 35.83100 28.95145 40135 ft 352 kts 306°
2026-05-07 13:45 35.85967 28.90305 40135 ft 352 kts 306°
2026-05-07 13:46 35.88859 28.85415 40136 ft 353 kts 306°
2026-05-07 13:46 35.91750 28.80520 40136 ft 353 kts 306°
2026-05-07 13:47 35.94174 28.76412 40138 ft 354 kts 306°
2026-05-07 13:47 35.97053 28.71524 40143 ft 354 kts 306°
2026-05-07 13:48 35.99948 28.66601 40141 ft 355 kts 306°
2026-05-07 13:48 36.02850 28.61660 40139 ft 355 kts 306°
2026-05-07 13:49 36.05754 28.56708 40136 ft 356 kts 306°
2026-05-07 13:49 36.08661 28.51745 40136 ft 356 kts 306°
2026-05-07 13:50 36.11563 28.46782 40134 ft 356 kts 306°
2026-05-07 13:50 36.14452 28.41834 40133 ft 357 kts 306°
2026-05-07 13:51 36.17368 28.36838 40131 ft 357 kts 306°
2026-05-07 13:51 36.20259 28.31877 40131 ft 357 kts 306°
2026-05-07 13:52 36.23165 28.26883 40134 ft 357 kts 306°
2026-05-07 13:52 36.26069 28.21885 40136 ft 357 kts 306°
2026-05-07 13:53 36.28965 28.16892 40136 ft 357 kts 306°
2026-05-07 13:53 36.31863 28.11890 40138 ft 357 kts 306°
2026-05-07 13:54 36.34947 28.07116 40135 ft 357 kts 314°
2026-05-07 13:54 36.38596 28.02920 40134 ft 357 kts 316°
2026-05-07 13:55 36.42231 27.98718 40131 ft 357 kts 316°
2026-05-07 13:55 36.45868 27.94509 40130 ft 356 kts 316°
2026-05-07 13:56 36.49495 27.90311 40125 ft 356 kts 316°
2026-05-07 13:56 36.53115 27.86117 40123 ft 356 kts 316°
2026-05-07 13:57 36.56739 27.81912 40118 ft 355 kts 316°
2026-05-07 13:57 36.60328 27.77744 40111 ft 355 kts 316°
2026-05-07 13:58 36.63958 27.73520 40108 ft 354 kts 316°
2026-05-07 13:58 36.67539 27.69348 40110 ft 355 kts 316°
2026-05-07 13:59 36.71135 27.65153 40110 ft 354 kts 315°
2026-05-07 13:59 36.74735 27.60949 40110 ft 353 kts 315°
2026-05-07 14:00 36.78323 27.56750 40111 ft 354 kts 315°
2026-05-07 14:00 36.81918 27.52541 40116 ft 354 kts 315°
2026-05-07 14:01 36.85512 27.48325 40121 ft 355 kts 315°
2026-05-07 14:01 36.89116 27.44093 40129 ft 355 kts 315°
2026-05-07 14:02 36.92717 27.39858 40137 ft 356 kts 315°
2026-05-07 14:02 36.96303 27.35636 40135 ft 357 kts 315°
2026-05-07 14:03 36.99921 27.31369 40145 ft 357 kts 315°
2026-05-07 14:03 37.03545 27.27090 40146 ft 358 kts 315°
2026-05-07 14:04 37.07169 27.22805 40150 ft 358 kts 315°
2026-05-07 14:04 37.10793 27.18513 40154 ft 358 kts 315°
2026-05-07 14:05 37.14396 27.14241 40155 ft 358 kts 315°
2026-05-07 14:05 37.18018 27.09941 40157 ft 358 kts 315°
2026-05-07 14:06 37.21635 27.05640 40158 ft 358 kts 315°
2026-05-07 14:06 37.25244 27.01342 40153 ft 357 kts 315°
2026-05-07 14:07 37.28852 26.97041 40150 ft 357 kts 315°
2026-05-07 14:07 37.32451 26.92743 40145 ft 356 kts 315°
2026-05-07 14:08 37.36045 26.88446 40143 ft 356 kts 314°
2026-05-07 14:08 37.39608 26.84183 40136 ft 355 kts 314°
2026-05-07 14:09 37.43304 26.80045 40122 ft 355 kts 317°
2026-05-07 14:09 37.47095 26.76041 40122 ft 355 kts 317°
2026-05-07 14:10 37.50849 26.72016 40120 ft 354 kts 317°
2026-05-07 14:10 37.54589 26.67973 40109 ft 354 kts 317°
2026-05-07 14:11 37.58305 26.63945 40111 ft 354 kts 317°
2026-05-07 14:11 37.62048 26.59884 40125 ft 354 kts 317°
2026-05-07 14:12 37.65789 26.55820 40127 ft 355 kts 317°
2026-05-07 14:12 37.69541 26.51739 40131 ft 355 kts 317°
2026-05-07 14:13 37.73297 26.47658 40122 ft 356 kts 317°
2026-05-07 14:13 37.77030 26.43599 40128 ft 357 kts 317°
2026-05-07 14:14 37.80801 26.39492 40141 ft 357 kts 317°
2026-05-07 14:14 37.84575 26.35375 40145 ft 358 kts 316°
2026-05-07 14:15 37.88350 26.31249 40147 ft 359 kts 316°
2026-05-07 14:15 37.92131 26.27099 40145 ft 360 kts 316°
2026-05-07 14:16 37.95918 26.22937 40149 ft 360 kts 316°
2026-05-07 14:16 37.99703 26.18772 40151 ft 361 kts 316°
2026-05-07 14:17 38.03473 26.14618 40150 ft 361 kts 316°
2026-05-07 14:17 38.07265 26.10434 40150 ft 361 kts 316°
2026-05-07 14:18 38.11055 26.06244 40151 ft 361 kts 316°
2026-05-07 14:18 38.14844 26.02050 40150 ft 361 kts 316°
2026-05-07 14:19 38.18635 25.97847 40150 ft 361 kts 316°
2026-05-07 14:19 38.22430 25.93634 40149 ft 362 kts 316°
2026-05-07 14:20 38.26251 25.89522 40154 ft 362 kts 320°
2026-05-07 14:20 38.30273 25.85636 40151 ft 362 kts 319°
2026-05-07 14:21 38.34274 25.81742 40135 ft 361 kts 319°
2026-05-07 14:21 38.38269 25.77849 40121 ft 360 kts 319°
2026-05-07 14:22 38.42224 25.73984 40117 ft 360 kts 319°
2026-05-07 14:22 38.46195 25.70098 40113 ft 359 kts 319°
2026-05-07 14:23 38.50163 25.66215 40105 ft 359 kts 319°
2026-05-07 14:23 38.54124 25.62335 40105 ft 359 kts 319°
2026-05-07 14:24 38.58086 25.58449 40106 ft 359 kts 319°
2026-05-07 14:24 38.62050 25.54553 40105 ft 360 kts 319°
2026-05-07 14:25 38.65992 25.50673 40110 ft 360 kts 319°
2026-05-07 14:25 38.69966 25.46757 40104 ft 360 kts 319°
2026-05-07 14:26 38.73941 25.42834 40106 ft 361 kts 319°
2026-05-07 14:26 38.77918 25.38903 40107 ft 361 kts 319°
2026-05-07 14:27 38.81907 25.34955 40112 ft 362 kts 319°
2026-05-07 14:27 38.85870 25.31026 40112 ft 362 kts 319°
2026-05-07 14:28 38.89869 25.27057 40116 ft 363 kts 319°
2026-05-07 14:28 38.93870 25.23080 40120 ft 364 kts 318°
2026-05-07 14:29 38.97879 25.19089 40122 ft 365 kts 318°
2026-05-07 14:29 39.01875 25.15104 40128 ft 365 kts 318°
2026-05-07 14:30 39.05214 25.11770 40130 ft 366 kts 318°
2026-05-07 14:30 39.09237 25.07749 40131 ft 366 kts 318°
2026-05-07 14:31 39.13274 25.03707 40135 ft 367 kts 318°
2026-05-07 14:31 39.17306 24.99664 40142 ft 367 kts 318°
2026-05-07 14:32 39.21317 24.95637 40137 ft 367 kts 318°
2026-05-07 14:32 39.25188 24.91746 40138 ft 367 kts 318°
2026-05-07 14:33 39.29213 24.87696 40134 ft 367 kts 318°
2026-05-07 14:33 39.33242 24.83634 40132 ft 367 kts 318°
2026-05-07 14:34 39.37270 24.79568 40129 ft 366 kts 318°
2026-05-07 14:34 39.41283 24.75510 40120 ft 366 kts 318°
2026-05-07 14:35 39.44334 24.72422 40117 ft 365 kts 318°
2026-05-07 14:35 39.48324 24.68377 40116 ft 365 kts 318°
2026-05-07 14:36 39.52315 24.64324 40114 ft 365 kts 317°
2026-05-07 14:36 39.56314 24.60252 40104 ft 365 kts 317°
2026-05-07 14:37 39.60288 24.56204 40107 ft 365 kts 317°
2026-05-07 14:37 39.66279 24.50088 40104 ft 365 kts 317°
2026-05-07 14:38 39.70280 24.45996 40104 ft 365 kts 317°
2026-05-07 14:38 39.74251 24.41928 40104 ft 366 kts 317°
2026-05-07 14:39 39.78251 24.37824 40106 ft 366 kts 317°
2026-05-07 14:39 39.82261 24.33703 40104 ft 367 kts 317°
2026-05-07 14:40 39.86278 24.29569 40113 ft 368 kts 317°
2026-05-07 14:40 39.90297 24.25427 40115 ft 369 kts 317°
2026-05-07 14:41 39.94322 24.21271 40116 ft 369 kts 317°
2026-05-07 14:41 39.98326 24.17132 40123 ft 370 kts 317°
2026-05-07 14:42 40.02368 24.12947 40122 ft 371 kts 317°
2026-05-07 14:42 40.06409 24.08756 40128 ft 371 kts 317°
2026-05-07 14:43 40.10436 24.04573 40126 ft 371 kts 317°
2026-05-07 14:43 40.14482 24.00364 40126 ft 372 kts 317°
2026-05-07 14:44 40.18528 23.96148 40128 ft 372 kts 317°
2026-05-07 14:44 40.22576 23.91923 40128 ft 372 kts 317°
2026-05-07 14:45 40.26623 23.87693 40127 ft 372 kts 317°
2026-05-07 14:45 40.30668 23.83458 40120 ft 372 kts 317°
2026-05-07 14:46 40.34712 23.79219 40124 ft 371 kts 317°
2026-05-07 14:46 40.38729 23.74999 40116 ft 371 kts 317°
2026-05-07 14:47 40.42762 23.70756 40100 ft 371 kts 317°
2026-05-07 14:47 40.46796 23.66507 40103 ft 371 kts 317°
2026-05-07 14:48 40.50823 23.62258 40106 ft 371 kts 317°
2026-05-07 14:48 40.54852 23.57999 40108 ft 371 kts 317°
2026-05-07 14:49 40.58849 23.53768 40101 ft 371 kts 316°
2026-05-07 14:49 40.62887 23.49486 40097 ft 371 kts 316°
2026-05-07 14:50 40.66904 23.45221 40094 ft 371 kts 316°
2026-05-07 14:50 40.70925 23.40944 40093 ft 371 kts 316°
2026-05-07 14:51 40.74949 23.36657 40098 ft 372 kts 316°
2026-05-07 14:51 40.78976 23.32358 40099 ft 372 kts 316°
2026-05-07 14:52 40.82976 23.28084 40098 ft 372 kts 316°
2026-05-07 14:52 40.87004 23.23774 40099 ft 373 kts 316°
2026-05-07 14:53 40.91037 23.19451 40102 ft 373 kts 316°
2026-05-07 14:53 40.95064 23.15125 40104 ft 373 kts 316°
2026-05-07 14:54 40.99096 23.10786 40106 ft 374 kts 316°
2026-05-07 14:54 41.03140 23.06428 40108 ft 375 kts 316°
2026-05-07 14:55 41.07181 23.02066 40113 ft 375 kts 316°
2026-05-07 14:55 41.11005 22.97409 40115 ft 371 kts 307°
2026-05-07 14:56 41.14325 22.92165 40122 ft 371 kts 307°
2026-05-07 14:56 41.17668 22.86935 40119 ft 371 kts 307°
2026-05-07 14:57 41.21005 22.81700 40122 ft 372 kts 306°
2026-05-07 14:57 41.24321 22.76480 40125 ft 372 kts 306°
2026-05-07 14:58 41.27747 22.71319 40125 ft 372 kts 309°
2026-05-07 14:58 41.31261 22.66259 40125 ft 372 kts 308°
2026-05-07 14:59 41.34757 22.61174 40123 ft 372 kts 308°
2026-05-07 14:59 41.38244 22.56063 40126 ft 372 kts 308°
2026-05-07 15:00 41.41719 22.50955 40122 ft 372 kts 308°
2026-05-07 15:00 41.45170 22.45876 40124 ft 372 kts 308°
2026-05-07 15:01 41.48643 22.40756 40121 ft 372 kts 308°
2026-05-07 15:01 41.52117 22.35624 40116 ft 372 kts 308°
2026-05-07 15:02 41.55583 22.30495 40111 ft 372 kts 308°
2026-05-07 15:02 41.59043 22.25368 40106 ft 371 kts 308°
2026-05-07 15:03 41.62499 22.20237 40103 ft 371 kts 308°
2026-05-07 15:03 41.65954 22.15098 40096 ft 371 kts 308°
2026-05-07 15:04 41.69386 22.09985 40092 ft 371 kts 308°
2026-05-07 15:04 41.72835 22.04838 40092 ft 371 kts 308°
2026-05-07 15:05 41.76290 21.99672 40092 ft 372 kts 308°
2026-05-07 15:05 41.79748 21.94493 40099 ft 373 kts 308°
2026-05-07 15:06 41.83201 21.89314 40099 ft 374 kts 308°
2026-05-07 15:06 41.86674 21.84094 40104 ft 374 kts 308°
2026-05-07 15:07 41.90150 21.78860 40108 ft 376 kts 308°
2026-05-07 15:07 41.93634 21.73606 40109 ft 377 kts 307°
2026-05-07 15:08 41.97097 21.68376 40119 ft 377 kts 308°
2026-05-07 15:08 42.00585 21.63096 40120 ft 378 kts 307°
2026-05-07 15:09 42.04080 21.57796 40128 ft 378 kts 307°
2026-05-07 15:09 42.07571 21.52493 40131 ft 378 kts 307°
2026-05-07 15:10 42.11064 21.47178 40136 ft 379 kts 307°
2026-05-07 15:10 42.13967 21.42754 40135 ft 378 kts 307°
2026-05-07 15:11 42.17985 21.36564 40122 ft 376 kts 306°
2026-05-07 15:11 42.20816 21.32052 40117 ft 376 kts 306°
2026-05-07 15:12 42.24176 21.26698 40111 ft 375 kts 306°
2026-05-07 15:12 42.27552 21.21329 40104 ft 374 kts 306°
2026-05-07 15:13 42.30922 21.15962 40102 ft 374 kts 306°
2026-05-07 15:13 42.34283 21.10603 40096 ft 373 kts 306°
2026-05-07 15:14 42.37631 21.05253 40095 ft 372 kts 306°
2026-05-07 15:14 42.40974 20.99900 40090 ft 372 kts 306°
2026-05-07 15:15 42.44289 20.94584 40087 ft 371 kts 306°
2026-05-07 15:15 42.47621 20.89232 40076 ft 371 kts 306°
2026-05-07 15:16 42.50942 20.83885 40071 ft 370 kts 306°
2026-05-07 15:16 42.54259 20.78536 40074 ft 371 kts 306°
2026-05-07 15:17 42.57581 20.73170 40069 ft 371 kts 306°
2026-05-07 15:17 42.60904 20.67793 40071 ft 372 kts 306°
2026-05-07 15:18 42.64232 20.62397 40070 ft 373 kts 306°
2026-05-07 15:18 42.67545 20.57015 40061 ft 374 kts 306°
2026-05-07 15:19 42.70881 20.51587 40065 ft 374 kts 306°
2026-05-07 15:19 42.74218 20.46146 40069 ft 375 kts 306°
2026-05-07 15:20 42.77567 20.40677 40070 ft 376 kts 306°
2026-05-07 15:20 42.80911 20.35207 40072 ft 376 kts 306°
2026-05-07 15:21 42.84732 20.30263 40073 ft 384 kts 319°
2026-05-07 15:21 42.89325 20.26429 40065 ft 388 kts 324°
2026-05-07 15:22 42.93984 20.22681 40072 ft 388 kts 324°
2026-05-07 15:22 42.98646 20.18923 40060 ft 389 kts 324°
2026-05-07 15:23 43.03315 20.15156 40060 ft 389 kts 324°
2026-05-07 15:23 43.07983 20.11388 40067 ft 390 kts 324°
2026-05-07 15:24 43.12649 20.07613 40049 ft 390 kts 324°
2026-05-07 15:24 43.17317 20.03830 40044 ft 390 kts 324°
2026-05-07 15:25 43.21969 20.00054 40049 ft 391 kts 324°
2026-05-07 15:25 43.26646 19.96251 40051 ft 390 kts 324°
2026-05-07 15:26 43.31322 19.92440 40043 ft 390 kts 324°
2026-05-07 15:26 43.35986 19.88634 40044 ft 390 kts 324°
2026-05-07 15:27 43.40630 19.84837 40034 ft 390 kts 324°
2026-05-07 15:27 43.45290 19.81019 40032 ft 390 kts 324°
2026-05-07 15:28 43.49968 19.77180 40027 ft 390 kts 324°
2026-05-07 15:28 43.54612 19.73361 40029 ft 391 kts 324°
2026-05-07 15:29 43.59285 19.69513 40030 ft 391 kts 324°
2026-05-07 15:29 43.63960 19.65656 40027 ft 391 kts 324°
2026-05-07 15:30 43.68631 19.61795 40024 ft 391 kts 324°
2026-05-07 15:30 43.73307 19.57923 40025 ft 391 kts 324°
2026-05-07 15:31 43.77983 19.54043 40025 ft 392 kts 324°
2026-05-07 15:31 43.82626 19.50182 40023 ft 392 kts 324°
2026-05-07 15:32 43.87309 19.46282 40027 ft 393 kts 324°
2026-05-07 15:32 43.92000 19.42369 40036 ft 393 kts 324°
2026-05-07 15:33 43.96908 19.39047 40026 ft 400 kts 336°
2026-05-07 15:33 44.02445 19.37318 40035 ft 406 kts 344°
2026-05-07 15:34 44.07965 19.35858 40033 ft 406 kts 343°
2026-05-07 15:34 44.13513 19.34384 40026 ft 405 kts 343°
2026-05-07 15:35 44.19059 19.32916 40025 ft 405 kts 343°
2026-05-07 15:35 44.24569 19.31458 40021 ft 405 kts 343°
2026-05-07 15:36 44.30114 19.29988 40009 ft 404 kts 343°
2026-05-07 15:36 44.35647 19.28519 40008 ft 404 kts 343°
2026-05-07 15:37 44.41172 19.27047 40011 ft 404 kts 343°
2026-05-07 15:37 44.46702 19.25570 40013 ft 405 kts 343°
2026-05-07 15:38 44.52210 19.24098 40016 ft 405 kts 343°
2026-05-07 15:38 44.57756 19.22614 40008 ft 405 kts 343°
2026-05-07 15:39 44.63305 19.21125 40005 ft 405 kts 343°
2026-05-07 15:39 44.68846 19.19636 40007 ft 406 kts 343°
2026-05-07 15:40 44.74402 19.18140 40011 ft 406 kts 343°
2026-05-07 15:40 44.79969 19.16637 40010 ft 407 kts 343°
2026-05-07 15:41 44.85508 19.15139 40013 ft 407 kts 343°
2026-05-07 15:41 44.91080 19.13630 40012 ft 408 kts 343°
2026-05-07 15:42 44.96667 19.12114 40014 ft 408 kts 343°
2026-05-07 15:42 45.02247 19.10595 40016 ft 409 kts 343°
2026-05-07 15:43 45.07841 19.09071 40017 ft 409 kts 343°
2026-05-07 15:43 45.13179 19.06736 40013 ft 399 kts 327°
2026-05-07 15:44 45.17736 19.02369 40007 ft 392 kts 317°
2026-05-07 15:44 45.22083 18.97764 40004 ft 392 kts 318°
2026-05-07 15:45 45.26467 18.93121 40005 ft 394 kts 317°
2026-05-07 15:45 45.30866 18.88440 40005 ft 395 kts 317°
2026-05-07 15:46 45.37473 18.81388 39999 ft 396 kts 317°
2026-05-07 15:47 45.41888 18.76663 40001 ft 396 kts 317°
2026-05-07 15:47 45.46264 18.71971 40000 ft 396 kts 317°
2026-05-07 15:48 45.50681 18.67225 40003 ft 397 kts 317°
2026-05-07 15:48 45.55094 18.62474 40003 ft 397 kts 317°
2026-05-07 15:49 45.59500 18.57721 40004 ft 397 kts 317°
2026-05-07 15:49 45.63907 18.52957 40011 ft 397 kts 317°
2026-05-07 15:50 45.67584 18.48975 40008 ft 398 kts 317°
2026-05-07 15:50 45.72712 18.43410 40017 ft 398 kts 317°
2026-05-07 15:51 45.76671 18.39950 40015 ft 406 kts 330°
2026-05-07 15:51 45.81816 18.36568 40013 ft 406 kts 329°
2026-05-07 15:52 45.86934 18.33149 40019 ft 406 kts 329°
2026-05-07 15:52 45.92060 18.29724 40018 ft 406 kts 329°
2026-05-07 15:53 45.97189 18.26294 40021 ft 406 kts 329°
2026-05-07 15:53 46.02311 18.22860 40019 ft 407 kts 329°
2026-05-07 15:54 46.07449 18.19410 40007 ft 407 kts 329°
2026-05-07 15:54 46.12575 18.15961 40006 ft 407 kts 329°
2026-05-07 15:55 46.17711 18.12496 40006 ft 407 kts 329°
2026-05-07 15:55 46.22848 18.09025 39999 ft 407 kts 329°
2026-05-07 15:56 46.27985 18.05547 39991 ft 408 kts 329°
2026-05-07 15:56 46.33124 18.02059 39990 ft 408 kts 329°
2026-05-07 15:57 46.38274 17.98556 39990 ft 408 kts 329°
2026-05-07 15:57 46.43387 17.95073 39990 ft 409 kts 329°
2026-05-07 15:58 46.48539 17.91555 39989 ft 409 kts 329°
2026-05-07 15:58 46.53697 17.88025 39990 ft 410 kts 329°
2026-05-07 15:59 46.58854 17.84488 39987 ft 410 kts 329°
2026-05-07 15:59 46.64022 17.80937 39988 ft 410 kts 329°
2026-05-07 16:00 46.69198 17.77373 39986 ft 411 kts 329°
2026-05-07 16:00 46.74363 17.73808 39984 ft 411 kts 329°
2026-05-07 16:01 46.79527 17.70237 39978 ft 411 kts 329°
2026-05-07 16:01 46.84677 17.66666 39980 ft 411 kts 329°
2026-05-07 16:02 46.89861 17.63065 39982 ft 411 kts 329°
2026-05-07 16:02 46.95035 17.59463 39974 ft 412 kts 329°
2026-05-07 16:03 47.00179 17.55875 39961 ft 412 kts 329°
2026-05-07 16:03 47.05352 17.52258 39968 ft 412 kts 329°
2026-05-07 16:04 47.10528 17.48633 39971 ft 412 kts 329°
2026-05-07 16:04 47.15702 17.45000 39958 ft 412 kts 329°
2026-05-07 16:05 47.20879 17.41357 39954 ft 413 kts 329°
2026-05-07 16:05 47.26062 17.37703 39953 ft 413 kts 329°
2026-05-07 16:06 47.31257 17.34031 39951 ft 414 kts 329°
2026-05-07 16:06 47.36459 17.30347 39951 ft 414 kts 329°
2026-05-07 16:07 47.41607 17.26693 39953 ft 415 kts 329°
2026-05-07 16:07 47.46863 17.22954 39955 ft 416 kts 329°
2026-05-07 16:08 47.52056 17.19251 39959 ft 417 kts 329°
2026-05-07 16:08 47.57293 17.15508 39964 ft 418 kts 329°
2026-05-07 16:09 47.62475 17.11798 39965 ft 419 kts 329°
2026-05-07 16:09 47.67727 17.08032 39969 ft 419 kts 329°
2026-05-07 16:10 47.72554 17.03389 39967 ft 409 kts 313°
2026-05-07 16:10 47.76497 16.97366 39968 ft 405 kts 308°
2026-05-07 16:11 47.80365 16.91263 39971 ft 405 kts 308°
2026-05-07 16:11 47.84232 16.85142 39981 ft 405 kts 308°
2026-05-07 16:12 47.88079 16.79022 39984 ft 404 kts 308°
2026-05-07 16:12 47.91893 16.72936 39984 ft 404 kts 308°
2026-05-07 16:13 47.95729 16.66800 39983 ft 403 kts 308°
2026-05-07 16:13 47.99558 16.60661 39981 ft 403 kts 308°
2026-05-07 16:14 48.03367 16.54540 39974 ft 402 kts 308°
2026-05-07 16:14 48.07153 16.48441 39969 ft 402 kts 308°
2026-05-07 16:15 48.10971 16.42276 39964 ft 402 kts 308°
2026-05-07 16:15 48.14770 16.36129 39956 ft 401 kts 308°
2026-05-07 16:16 48.18562 16.29978 39951 ft 401 kts 308°
2026-05-07 16:16 48.22323 16.23863 39943 ft 401 kts 308°
2026-05-07 16:17 48.26102 16.17703 39950 ft 401 kts 308°
2026-05-07 16:17 48.29880 16.11531 39943 ft 401 kts 308°
2026-05-07 16:18 48.33680 16.05309 39939 ft 401 kts 308°
2026-05-07 16:18 48.37434 15.99147 39938 ft 402 kts 308°
2026-05-07 16:19 48.41210 15.92934 39947 ft 402 kts 307°
2026-05-07 16:19 48.44985 15.86709 39946 ft 403 kts 307°
2026-05-07 16:20 48.48766 15.80459 39949 ft 403 kts 307°
2026-05-07 16:20 48.52515 15.74248 39950 ft 403 kts 307°
2026-05-07 16:21 48.56322 15.67924 39955 ft 404 kts 307°
2026-05-07 16:21 48.60083 15.61663 39955 ft 404 kts 307°
2026-05-07 16:22 48.63881 15.55323 39962 ft 405 kts 307°
2026-05-07 16:22 48.67645 15.49027 39962 ft 405 kts 307°
2026-05-07 16:23 48.71418 15.42699 39968 ft 405 kts 307°
2026-05-07 16:23 48.75192 15.36355 39965 ft 405 kts 307°
2026-05-07 16:24 48.78974 15.29983 39969 ft 405 kts 307°
2026-05-07 16:24 48.82738 15.23625 39966 ft 405 kts 307°
2026-05-07 16:25 48.85860 15.18339 39965 ft 404 kts 307°
2026-05-07 16:25 48.90181 15.10879 39963 ft 402 kts 302°
2026-05-07 16:26 48.92950 15.05154 39968 ft 400 kts 302°
2026-05-07 16:26 48.96263 14.98397 39951 ft 400 kts 302°
2026-05-07 16:27 48.99595 14.91583 39958 ft 400 kts 302°
2026-05-07 16:27 49.02910 14.84763 39959 ft 400 kts 302°
2026-05-07 16:28 49.06216 14.77939 39955 ft 400 kts 302°
2026-05-07 16:28 49.09526 14.71088 39960 ft 400 kts 302°
2026-05-07 16:29 49.12806 14.64283 39965 ft 400 kts 301°
2026-05-07 16:29 49.16107 14.57416 39963 ft 400 kts 301°
2026-05-07 16:30 49.19401 14.50546 39965 ft 400 kts 301°
2026-05-07 16:30 49.22691 14.43668 39972 ft 401 kts 301°
2026-05-07 16:31 49.25984 14.36764 39975 ft 401 kts 301°
2026-05-07 16:31 49.29265 14.29868 39981 ft 402 kts 301°
2026-05-07 16:32 49.32558 14.22930 39985 ft 403 kts 301°
2026-05-07 16:32 49.35850 14.15975 39989 ft 403 kts 301°
2026-05-07 16:33 49.39145 14.08996 39994 ft 404 kts 301°
2026-05-07 16:33 49.42423 14.02035 39994 ft 404 kts 301°
2026-05-07 16:34 49.45741 13.94970 39997 ft 404 kts 301°
2026-05-07 16:34 49.49021 13.87968 40004 ft 405 kts 301°
2026-05-07 16:35 49.52310 13.80926 40005 ft 405 kts 301°
2026-05-07 16:35 49.55577 13.73914 40010 ft 405 kts 301°
2026-05-07 16:36 49.58859 13.66853 40014 ft 405 kts 301°
2026-05-07 16:36 49.62136 13.59783 40023 ft 405 kts 301°
2026-05-07 16:37 49.65413 13.52694 40024 ft 405 kts 301°
2026-05-07 16:37 49.68684 13.45599 40027 ft 405 kts 301°
2026-05-07 16:38 49.71942 13.38512 40026 ft 404 kts 301°
2026-05-07 16:38 49.75194 13.31421 40019 ft 404 kts 301°
2026-05-07 16:39 49.78445 13.24313 40005 ft 404 kts 301°
2026-05-07 16:39 49.81682 13.17215 40002 ft 404 kts 300°
2026-05-07 16:40 49.84921 13.10095 40009 ft 404 kts 300°
2026-05-07 16:40 49.88155 13.02967 40010 ft 404 kts 300°
2026-05-07 16:41 49.91364 12.95872 40003 ft 404 kts 300°
2026-05-07 16:41 49.94592 12.88721 40000 ft 403 kts 300°
2026-05-07 16:42 49.97812 12.81566 39998 ft 403 kts 300°
2026-05-07 16:42 50.01027 12.74402 39996 ft 403 kts 300°
2026-05-07 16:43 50.04233 12.67239 39997 ft 403 kts 300°
2026-05-07 16:43 50.07437 12.60059 39999 ft 403 kts 300°
2026-05-07 16:44 50.10639 12.52867 40007 ft 403 kts 300°
2026-05-07 16:44 50.13835 12.45666 40004 ft 403 kts 300°
2026-05-07 16:45 50.17002 12.38514 40019 ft 403 kts 298°
2026-05-07 16:45 50.19468 12.30764 40019 ft 395 kts 284°
2026-05-07 16:46 50.20828 12.22504 40022 ft 392 kts 279°
2026-05-07 16:46 50.22140 12.14239 40014 ft 392 kts 280°
2026-05-07 16:47 50.23445 12.05963 40015 ft 393 kts 279°
2026-05-07 16:47 50.24739 11.97663 40019 ft 393 kts 279°
2026-05-07 16:48 50.26027 11.89385 40021 ft 393 kts 279°
2026-05-07 16:48 50.27315 11.81087 40021 ft 393 kts 279°
2026-05-07 16:49 50.28592 11.72808 40022 ft 393 kts 279°
2026-05-07 16:49 50.29869 11.64489 40024 ft 394 kts 279°
2026-05-07 16:50 50.31138 11.56145 40030 ft 394 kts 279°
2026-05-07 16:50 50.32381 11.47782 40028 ft 394 kts 279°
2026-05-07 16:51 50.33620 11.39414 40032 ft 394 kts 279°
2026-05-07 16:51 50.34856 11.31032 40039 ft 395 kts 279°
2026-05-07 16:52 50.36079 11.22693 40039 ft 395 kts 279°
2026-05-07 16:52 50.37305 11.14304 40044 ft 395 kts 279°
2026-05-07 16:53 50.38528 11.05896 40044 ft 395 kts 279°
2026-05-07 16:53 50.39745 10.97485 40041 ft 395 kts 279°
2026-05-07 16:54 50.40956 10.89063 40044 ft 396 kts 279°
2026-05-07 16:54 50.42143 10.80760 40045 ft 396 kts 279°
2026-05-07 16:55 50.43335 10.72376 40048 ft 396 kts 279°
2026-05-07 16:55 50.44537 10.64001 40048 ft 396 kts 279°
2026-05-07 16:56 50.45769 10.55491 40051 ft 396 kts 279°
2026-05-07 16:56 50.47582 10.42816 40049 ft 396 kts 279°
2026-05-07 16:57 50.48764 10.34366 40048 ft 396 kts 278°
2026-05-07 16:57 50.49938 10.25932 40047 ft 395 kts 278°
2026-05-07 16:58 50.51102 10.17535 40045 ft 395 kts 278°
2026-05-07 16:58 50.52065 10.10556 40042 ft 395 kts 278°
2026-05-07 16:59 50.53218 10.02158 40040 ft 395 kts 278°
2026-05-07 16:59 50.55175 9.94043 40034 ft 403 kts 297°
2026-05-07 17:00 50.58641 9.87039 40031 ft 407 kts 306°
2026-05-07 17:00 50.62273 9.80162 40035 ft 408 kts 305°
2026-05-07 17:01 50.65894 9.73262 40050 ft 408 kts 305°
2026-05-07 17:01 50.69528 9.66334 40043 ft 409 kts 305°
2026-05-07 17:02 50.73120 9.59461 40049 ft 410 kts 305°
2026-05-07 17:02 50.76711 9.52585 40046 ft 410 kts 305°
2026-05-07 17:03 50.80341 9.45626 40037 ft 410 kts 305°
2026-05-07 17:03 50.83953 9.38681 40061 ft 411 kts 305°
2026-05-07 17:04 50.87583 9.31678 40070 ft 411 kts 305°
2026-05-07 17:04 50.91210 9.24663 40076 ft 411 kts 305°
2026-05-07 17:05 50.94832 9.17640 40083 ft 411 kts 305°
2026-05-07 17:05 50.98448 9.10608 40085 ft 411 kts 305°
2026-05-07 17:06 51.02063 9.03560 40087 ft 411 kts 305°
2026-05-07 17:06 51.05683 8.96482 40086 ft 411 kts 305°
2026-05-07 17:07 51.09266 8.89458 40082 ft 411 kts 305°
2026-05-07 17:07 51.12847 8.82419 40088 ft 410 kts 305°
2026-05-07 17:08 51.16427 8.75359 40079 ft 410 kts 305°
2026-05-07 17:08 51.19998 8.68294 40064 ft 409 kts 305°
2026-05-07 17:09 51.23547 8.61254 40065 ft 409 kts 305°
2026-05-07 17:09 51.27094 8.54199 40062 ft 408 kts 305°
2026-05-07 17:10 51.30594 8.47216 40073 ft 408 kts 305°
2026-05-07 17:10 51.34137 8.40142 40068 ft 407 kts 305°
2026-05-07 17:11 51.37692 8.33092 40069 ft 407 kts 305°
2026-05-07 17:11 51.41238 8.26048 40065 ft 406 kts 305°
2026-05-07 17:12 51.44776 8.18991 40065 ft 406 kts 305°
2026-05-07 17:12 51.48308 8.11926 40059 ft 405 kts 305°
2026-05-07 17:13 51.51740 8.05040 40058 ft 405 kts 305°
2026-05-07 17:13 51.55256 7.97966 40060 ft 404 kts 305°
2026-05-07 17:14 51.58763 7.90892 40060 ft 404 kts 305°
2026-05-07 17:14 51.62266 7.83806 40057 ft 404 kts 305°
2026-05-07 17:15 51.65761 7.76715 40057 ft 404 kts 305°
2026-05-07 17:15 51.69233 7.69653 40057 ft 404 kts 305°
2026-05-07 17:16 51.72722 7.62536 40062 ft 404 kts 305°
2026-05-07 17:16 51.76199 7.55426 40064 ft 405 kts 305°
2026-05-07 17:17 51.79682 7.48280 40067 ft 405 kts 305°
2026-05-07 17:17 51.83174 7.41097 40068 ft 406 kts 305°
2026-05-07 17:18 51.86640 7.33950 40074 ft 406 kts 305°
2026-05-07 17:18 51.90132 7.26726 40071 ft 407 kts 305°
2026-05-07 17:19 51.93621 7.19490 40076 ft 407 kts 305°
2026-05-07 17:19 51.97105 7.12242 40078 ft 408 kts 305°
2026-05-07 17:20 52.00587 7.04979 40078 ft 408 kts 305°
2026-05-07 17:20 52.04078 6.97678 40079 ft 408 kts 305°
2026-05-07 17:21 52.07552 6.90390 40080 ft 408 kts 305°
2026-05-07 17:21 52.10982 6.83117 40076 ft 407 kts 302°
2026-05-07 17:22 52.13719 6.74988 40092 ft 421 kts 290°
2026-05-07 17:22 52.14790 6.70462 40062 ft 434 kts 287°
2026-05-07 17:22 52.15797 6.65755 40060 ft 447 kts 287°
2026-05-07 17:23 52.16826 6.60888 40061 ft 460 kts 287°
2026-05-07 17:23 52.17888 6.55942 40059 ft 469 kts 287°
2026-05-07 17:23 52.20122 6.45715 40056 ft 480 kts 288°
2026-05-07 17:24 52.22370 6.35465 40060 ft 480 kts 288°
2026-05-07 17:24 52.24613 6.25191 40061 ft 480 kts 288°
2026-05-07 17:25 52.26833 6.14969 40065 ft 480 kts 287°
2026-05-07 17:25 52.29055 6.04692 40063 ft 480 kts 287°
2026-05-07 17:26 52.31604 5.94600 40066 ft 483 kts 299°
2026-05-07 17:26 52.34835 5.86129 40065 ft 484 kts 300°
2026-05-07 17:27 52.38251 5.77240 40073 ft 484 kts 300°
2026-05-07 17:27 52.41853 5.67916 40078 ft 483 kts 300°
2026-05-07 17:28 52.45448 5.58588 40076 ft 484 kts 300°
2026-05-07 17:28 52.49034 5.49246 40076 ft 484 kts 300°
2026-05-07 17:29 52.52591 5.39944 40073 ft 481 kts 300°
2026-05-07 17:29 52.56133 5.30645 40076 ft 482 kts 300°
2026-05-07 17:30 52.59690 5.21275 40068 ft 482 kts 300°
2026-05-07 17:30 52.63235 5.11902 40068 ft 482 kts 300°
2026-05-07 17:31 52.66780 5.02492 40074 ft 482 kts 300°
2026-05-07 17:31 52.70307 4.93093 40094 ft 485 kts 300°
2026-05-07 17:32 52.73855 4.83610 40097 ft 486 kts 300°
2026-05-07 17:32 52.76803 4.75700 40102 ft 486 kts 300°
2026-05-07 17:33 52.80339 4.66181 40097 ft 486 kts 300°
2026-05-07 17:33 52.83870 4.56637 40098 ft 485 kts 300°
2026-05-07 17:34 52.87384 4.47102 40099 ft 486 kts 300°
2026-05-07 17:34 52.90879 4.37584 40100 ft 486 kts 300°
2026-05-07 17:35 52.94382 4.28011 40095 ft 486 kts 299°
2026-05-07 17:35 52.97878 4.18417 40101 ft 486 kts 299°
2026-05-07 17:36 53.01367 4.08805 40102 ft 486 kts 299°
2026-05-07 17:36 53.04852 3.99169 40103 ft 486 kts 299°
2026-05-07 17:37 53.08325 3.89529 40109 ft 486 kts 299°
2026-05-07 17:37 53.11772 3.79923 40108 ft 486 kts 299°
2026-05-07 17:38 53.15234 3.70240 40113 ft 486 kts 299°
2026-05-07 17:38 53.18680 3.60561 40118 ft 486 kts 299°
2026-05-07 17:39 53.22133 3.50827 40113 ft 486 kts 299°
2026-05-07 17:39 53.25725 3.41253 40110 ft 487 kts 306°
2026-05-07 17:40 53.29964 3.32500 40106 ft 488 kts 307°
2026-05-07 17:40 53.34241 3.23660 40105 ft 488 kts 307°
2026-05-07 17:41 53.38505 3.14815 40104 ft 488 kts 307°
2026-05-07 17:41 53.42767 3.05936 40108 ft 488 kts 307°
2026-05-07 17:42 53.47016 2.97044 40107 ft 488 kts 307°
2026-05-07 17:42 53.51258 2.88134 40105 ft 488 kts 307°
2026-05-07 17:43 53.55493 2.79206 40112 ft 488 kts 307°
2026-05-07 17:43 53.59696 2.70312 40113 ft 488 kts 307°
2026-05-07 17:44 53.63920 2.61343 40105 ft 488 kts 307°
2026-05-07 17:44 53.68142 2.52346 40114 ft 488 kts 307°
2026-05-07 17:45 53.72350 2.43348 40107 ft 488 kts 306°
2026-05-07 17:45 53.76551 2.34329 40098 ft 488 kts 306°
2026-05-07 17:46 53.80724 2.25341 40099 ft 488 kts 306°
2026-05-07 17:46 53.84909 2.16293 40099 ft 488 kts 306°
2026-05-07 17:47 53.89086 2.07231 40099 ft 488 kts 306°
2026-05-07 17:47 53.93281 1.98095 40101 ft 488 kts 306°
2026-05-07 17:48 53.97424 1.89039 40096 ft 488 kts 306°
2026-05-07 17:48 54.01586 1.79909 40095 ft 488 kts 306°
2026-05-07 17:49 54.05742 1.70760 40096 ft 488 kts 306°
2026-05-07 17:49 54.09884 1.61605 40097 ft 488 kts 306°
2026-05-07 17:50 54.14023 1.52426 40094 ft 488 kts 306°
2026-05-07 17:50 54.18139 1.43263 40089 ft 488 kts 306°
2026-05-07 17:51 54.22285 1.33999 40085 ft 488 kts 306°
2026-05-07 17:51 54.26383 1.24810 40084 ft 485 kts 306°
2026-05-07 17:52 54.30469 1.15611 40079 ft 488 kts 305°
2026-05-07 17:52 54.34574 1.06336 40082 ft 488 kts 305°
2026-05-07 17:53 54.38668 0.97053 40078 ft 488 kts 305°
2026-05-07 17:53 54.42762 0.87735 40080 ft 488 kts 305°
2026-05-07 17:54 54.46838 0.78420 40072 ft 488 kts 305°
2026-05-07 17:54 54.50911 0.69080 40070 ft 488 kts 305°
2026-05-07 17:55 54.54973 0.59731 40064 ft 488 kts 304°
2026-05-07 17:55 54.59031 0.50354 40062 ft 487 kts 304°
2026-05-07 17:56 54.63081 0.40958 40064 ft 488 kts 304°
2026-05-07 17:56 54.67117 0.31560 40059 ft 487 kts 304°
2026-05-07 17:57 54.70472 0.23722 40054 ft 487 kts 304°
2026-05-07 17:57 54.75177 0.12683 40051 ft 487 kts 304°
2026-05-07 17:58 54.79165 0.03294 40048 ft 487 kts 304°
2026-05-07 17:58 54.83173 -0.06179 40044 ft 487 kts 304°
2026-05-07 17:59 54.87208 -0.15751 40039 ft 487 kts 304°
2026-05-07 17:59 54.91176 -0.25205 40039 ft 487 kts 303°
2026-05-07 18:00 54.95162 -0.34735 40035 ft 487 kts 303°
2026-05-07 18:00 54.99139 -0.44282 40032 ft 487 kts 303°
2026-05-07 18:01 55.03100 -0.53829 40027 ft 487 kts 303°
2026-05-07 18:01 55.07079 -0.63459 40022 ft 487 kts 303°
2026-05-07 18:02 55.13020 -0.77905 40013 ft 488 kts 303°
2026-05-07 18:03 55.16969 -0.87553 40007 ft 488 kts 303°
2026-05-07 18:03 55.20887 -0.97164 40003 ft 488 kts 303°
2026-05-07 18:04 55.24831 -1.06875 40001 ft 488 kts 303°
2026-05-07 18:04 55.28755 -1.16573 39994 ft 487 kts 303°
2026-05-07 18:05 55.32669 -1.26286 39991 ft 487 kts 303°
2026-05-07 18:05 55.36572 -1.36010 39987 ft 487 kts 303°
2026-05-07 18:06 55.40475 -1.45757 39987 ft 487 kts 303°
2026-05-07 18:06 55.45015 -1.54619 39982 ft 493 kts 321°
2026-05-07 18:06 55.47944 -1.57794 39983 ft 497 kts 332°
2026-05-07 18:07 55.51025 -1.59845 39976 ft 500 kts 343°
2026-05-07 18:07 55.57866 -1.61847 39977 ft 502 kts 350°
2026-05-07 18:08 55.64770 -1.63804 39975 ft 502 kts 348°
2026-05-07 18:08 55.71641 -1.66188 39973 ft 502 kts 346°
2026-05-07 18:09 55.78459 -1.68674 39612 ft 497 kts 346°
2026-05-07 18:09 55.81851 -1.69918 38994 ft 497 kts 346°
2026-05-07 18:09 55.85237 -1.71160 38080 ft 497 kts 346°
2026-05-07 18:09 55.88626 -1.72406 36930 ft 499 kts 346°
2026-05-07 18:10 55.92041 -1.73662 35712 ft 503 kts 347°
2026-05-07 18:10 55.95478 -1.74928 34488 ft 507 kts 347°
2026-05-07 18:10 55.98949 -1.76208 33310 ft 511 kts 347°
2026-05-07 18:10 56.02444 -1.77496 32618 ft 515 kts 347°
2026-05-07 18:11 56.05968 -1.78798 32250 ft 518 kts 347°
2026-05-07 18:11 56.08305 -1.79663 32110 ft 519 kts 346°
2026-05-07 18:11 56.13040 -1.81419 31963 ft 519 kts 346°
2026-05-07 18:12 56.20128 -1.84059 31960 ft 520 kts 346°
2026-05-07 18:12 56.27207 -1.86705 31957 ft 520 kts 346°
2026-05-07 18:13 56.34258 -1.89350 31954 ft 520 kts 346°
2026-05-07 18:13 56.41346 -1.92019 31841 ft 517 kts 346°
2026-05-07 18:13 56.44853 -1.93342 31300 ft 512 kts 346°
2026-05-07 18:14 56.48314 -1.94650 30613 ft 505 kts 346°
2026-05-07 18:14 56.50639 -1.95530 30133 ft 502 kts 346°
2026-05-07 18:14 56.53989 -1.96802 29345 ft 495 kts 345°
2026-05-07 18:14 56.57400 -1.98100 28618 ft 491 kts 345°
2026-05-07 18:15 56.60680 -1.99351 27986 ft 486 kts 345°
2026-05-07 18:15 56.63973 -2.00609 27347 ft 481 kts 345°
2026-05-07 18:15 56.67243 -2.01860 26702 ft 477 kts 345°
2026-05-07 18:15 56.70476 -2.03098 26090 ft 473 kts 345°
2026-05-07 18:16 56.73691 -2.04331 25481 ft 469 kts 345°
2026-05-07 18:16 56.76871 -2.05553 24873 ft 465 kts 345°
2026-05-07 18:16 56.80034 -2.06770 24277 ft 461 kts 345°
2026-05-07 18:16 56.83168 -2.07979 23694 ft 457 kts 345°
2026-05-07 18:17 56.86272 -2.09181 23041 ft 454 kts 345°
2026-05-07 18:17 56.89308 -2.10360 22383 ft 449 kts 345°
2026-05-07 18:17 56.92356 -2.11547 21725 ft 444 kts 345°
2026-05-07 18:17 56.95379 -2.12723 21078 ft 440 kts 345°
2026-05-07 18:18 56.98356 -2.13881 20422 ft 436 kts 345°
2026-05-07 18:18 57.01316 -2.15033 19763 ft 432 kts 345°
2026-05-07 18:18 57.04248 -2.16176 19111 ft 428 kts 345°
2026-05-07 18:18 57.07064 -2.17761 18430 ft 419 kts 332°
2026-05-07 18:19 57.09540 -2.20461 17708 ft 410 kts 322°
2026-05-07 18:19 57.11889 -2.23366 17003 ft 404 kts 322°
2026-05-07 18:19 57.14208 -2.26235 16318 ft 399 kts 322°
2026-05-07 18:19 57.16512 -2.29044 15602 ft 395 kts 326°
2026-05-07 18:20 57.19037 -2.30895 14906 ft 397 kts 342°
2026-05-07 18:20 57.21764 -2.31606 14223 ft 396 kts 356°
2026-05-07 18:20 57.24509 -2.31469 13518 ft 392 kts 359°
2026-05-07 18:20 57.27224 -2.31299 12762 ft 387 kts 359°
2026-05-07 18:21 57.29904 -2.31139 12003 ft 384 kts 359°
2026-05-07 18:21 57.32562 -2.30986 11263 ft 379 kts 359°
2026-05-07 18:21 57.35186 -2.30840 10537 ft 375 kts 359°
2026-05-07 18:21 57.37779 -2.30693 9810 ft 372 kts 359°
2026-05-07 18:22 57.40352 -2.30550 9023 ft 367 kts 359°
2026-05-07 18:22 57.42038 -2.30447 8461 ft 366 kts 359°
2026-05-07 18:22 57.45415 -2.30229 7461 ft 359 kts 359°
2026-05-07 18:22 57.47921 -2.30058 6855 ft 362 kts 359°
2026-05-07 18:23 57.50445 -2.29877 7010 ft 361 kts 359°
2026-05-07 18:23 57.52895 -2.29698 7587 ft 338 kts 359°
2026-05-07 18:23 57.55097 -2.29525 7804 ft 306 kts 359°
2026-05-07 18:23 57.57186 -2.29346 7900 ft 299 kts 359°
2026-05-07 18:24 57.59261 -2.29168 7912 ft 297 kts 359°
2026-05-07 18:24 57.61329 -2.28992 7908 ft 297 kts 359°
2026-05-07 18:24 57.63391 -2.28821 7904 ft 297 kts 359°
2026-05-07 18:24 57.65464 -2.28640 7908 ft 297 kts 359°
2026-05-07 18:25 57.67529 -2.28457 7908 ft 297 kts 359°
2026-05-07 18:25 57.69592 -2.28279 7905 ft 297 kts 359°
2026-05-07 18:25 57.71654 -2.28176 7902 ft 295 kts 351°
2026-05-07 18:25 57.73582 -2.29224 7910 ft 287 kts 330°
2026-05-07 18:26 57.75361 -2.30826 7902 ft 287 kts 329°
2026-05-07 18:26 57.77183 -2.32466 7905 ft 287 kts 329°
2026-05-07 18:26 57.78955 -2.34061 7903 ft 286 kts 329°
2026-05-07 18:26 57.80756 -2.35684 7899 ft 286 kts 329°
2026-05-07 18:27 57.82555 -2.37307 7897 ft 286 kts 329°
2026-05-07 18:27 57.84359 -2.38939 7896 ft 287 kts 329°
2026-05-07 18:27 57.86156 -2.40569 7896 ft 287 kts 329°
2026-05-07 18:27 57.87934 -2.42183 7896 ft 287 kts 329°
2026-05-07 18:28 57.89737 -2.43822 7888 ft 287 kts 328°
2026-05-07 18:28 57.91372 -2.45893 7891 ft 281 kts 315°
2026-05-07 18:28 57.92855 -2.48269 7785 ft 279 kts 314°
2026-05-07 18:28 57.94325 -2.50622 7401 ft 276 kts 314°
2026-05-07 18:29 57.95728 -2.53041 6820 ft 269 kts 304°
2026-05-07 18:29 57.96864 -2.55827 6185 ft 268 kts 304°
2026-05-07 18:29 57.98116 -2.58430 5549 ft 267 kts 307°
2026-05-07 18:29 57.99373 -2.60987 4929 ft 265 kts 307°
2026-05-07 18:30 58.00606 -2.63498 4296 ft 263 kts 307°
2026-05-07 18:30 58.01421 -2.65225 4038 ft 259 kts 301°
2026-05-07 18:31 58.02063 -2.67965 3909 ft 253 kts 277°
2026-05-07 18:32 58.02287 -2.71190 3621 ft 243 kts 264°
2026-05-07 18:32 58.01852 -2.74178 2994 ft 236 kts 240°
2026-05-07 18:32 58.00985 -2.76795 2324 ft 234 kts 230°
2026-05-07 18:32 57.99976 -2.79163 1954 ft 233 kts 227°
2026-05-07 18:33 57.98940 -2.81387 2004 ft 220 kts 226°
2026-05-07 18:33 57.98035 -2.83332 1930 ft 196 kts 226°
2026-05-07 18:33 57.97320 -2.84894 1997 ft 177 kts 226°
2026-05-07 18:33 57.96528 -2.86513 2007 ft 160 kts 222°
2026-05-07 18:34 57.95787 -2.87968 2008 ft 147 kts 222°
2026-05-07 18:34 57.95045 -2.89297 2023 ft 148 kts 220°
2026-05-07 18:34 57.94320 -2.90559 2015 ft 144 kts 220°
2026-05-07 18:34 57.93535 -2.91927 2011 ft 165 kts 220°
2026-05-07 18:35 57.92675 -2.93436 2009 ft 169 kts 220°
2026-05-07 18:35 57.91830 -2.95001 2006 ft 172 kts 223°
2026-05-07 18:35 57.90991 -2.96577 2005 ft 173 kts 221°
2026-05-07 18:35 57.90120 -2.98157 2007 ft 176 kts 221°
2026-05-07 18:36 57.89201 -2.99800 2001 ft 186 kts 221°
2026-05-07 18:36 57.88275 -3.01450 2005 ft 181 kts 220°
2026-05-07 18:36 57.87355 -3.03119 2005 ft 185 kts 221°
2026-05-07 18:36 57.86467 -3.04822 2003 ft 185 kts 224°
2026-05-07 18:37 57.85574 -3.06595 2000 ft 182 kts 224°
2026-05-07 18:37 57.84722 -3.08307 2005 ft 183 kts 224°
2026-05-07 18:37 57.83850 -3.10053 2002 ft 184 kts 224°
2026-05-07 18:37 57.82941 -3.11775 2002 ft 185 kts 221°
2026-05-07 18:38 57.82016 -3.13426 2005 ft 184 kts 221°
2026-05-07 18:38 57.81096 -3.15085 2000 ft 181 kts 221°
2026-05-07 18:38 57.80175 -3.16738 2003 ft 184 kts 221°
2026-05-07 18:38 57.79256 -3.18391 2007 ft 186 kts 221°
2026-05-07 18:39 57.78328 -3.20059 1971 ft 184 kts 221°
2026-05-07 18:39 57.77401 -3.21721 1714 ft 183 kts 222°
2026-05-07 18:39 57.76501 -3.23337 1457 ft 178 kts 221°
2026-05-07 18:39 57.75653 -3.24859 1212 ft 159 kts 221°
2026-05-07 18:40 57.74815 -3.26355 983 ft 170 kts 222°
2026-05-07 18:40 57.74055 -3.27721 754 ft 156 kts 222°
2026-05-07 18:40 57.73310 -3.29057 543 ft 141 kts 221°
2026-05-07 18:40 57.72570 -3.30376 366 ft 153 kts 221°
2026-05-07 18:41 57.72086 -3.31246 231 ft 155 kts 221°
2026-05-07 18:41 57.71306 -3.32640 45 ft 152 kts 222°
2026-05-07 18:41 57.70748 -3.33641 48 ft 119 kts 223°
2026-05-07 18:41 57.70416 -3.34258 43 ft 9 kts 260°
2026-05-07 18:42 57.70420 -3.34282 43 ft 3 kts 278°
2026-05-07 18:42 57.70430 -3.34307 43 ft 4 kts 309°
2026-05-07 18:42 57.70443 -3.34335 43 ft 0 kts 310°
2026-05-07 18:42 57.70452 -3.34350 44 ft 5 kts 314°
2026-05-07 18:43 57.70548 -3.34374 46 ft 29 kts
2026-05-07 18:43 57.70757 -3.34286 49 ft 32 kts 36°
2026-05-07 18:43 57.70914 -3.33974 48 ft 34 kts 49°
2026-05-07 18:43 57.71065 -3.33646 45 ft 28 kts 47°
2026-05-07 18:44 57.71199 -3.33362 43 ft 31 kts 50°
2026-05-07 18:44 57.71308 -3.33192 41 ft 10 kts 351°
2026-05-07 18:44 57.71409 -3.33210 41 ft 16 kts 34°
2026-05-07 18:44 57.71417 -3.33193 41 ft 0 kts 46°
2026-05-07 18:45 57.71411 -3.33204 41 ft 2 kts 52°
2026-05-07 18:45 57.71401 -3.33250 40 ft 4 kts 127°
2026-05-07 18:45 57.71424 -3.33287 39 ft 4 kts 140°
2026-05-07 18:45 57.71447 -3.33322 39 ft 3 kts 141°
2026-05-07 18:46 57.71431 -3.33297 38 ft 0 kts 141°
2026-05-07 18:46 57.71429 -3.33295 38 ft 0 kts 141°